BADBUCHAU Weather Reports


Display with metric or nautical units.
time (UTC)temp
F
wind
direction
speed
MPH
gust
MPH
rain 1hr
in
rain 24hr
in
rain mn
in
humidity
%
barometer
mb
20260505010211 50 262 2.0 0.0 0.00 0.00 0.00 80 1009.3
20260505003208 50 262 0.0 0.0 0.00 0.00 0.00 80 1009.6
20260505000211 52 53 2.0 0.0 0.00 0.00 0.00 77 1009.8
20260504233209 55 142 0.0 0.0 0.00 0.00 0.00 71 1009.9
20260504230209 57 142 1.0 0.0 0.00 0.00 0.00 69 1010.2
20260504223214 57 9 1.0 0.0 0.00 0.00 0.00 67 1010.1
20260504220209 57 9 0.0 0.0 0.00 0.00 0.00 65 1010.2
20260504213209 58 9 1.0 0.0 0.00 0.00 0.00 64 1010.3
20260504210209 58 5 10.0 0.0 0.00 0.00 0.00 63 1010.4
20260504203209 59 319 7.0 0.0 0.00 0.00 0.00 62 1010.5
20260504200209 61 336 8.0 0.0 0.00 0.00 0.00 57 1010.4
20260504193209 62 282 8.0 0.0 0.00 0.00 0.00 53 1010.4
20260504190209 63 271 7.0 0.0 0.00 0.00 0.00 51 1010.4
20260504183209 64 275 8.0 0.0 0.00 0.00 0.00 49 1010.5
20260504180214 66 246 8.0 0.0 0.00 0.00 0.00 45 1010.3
20260504173209 67 281 0.0 0.0 0.00 0.00 0.00 43 1009.9
20260504170210 68 281 3.0 0.0 0.00 0.00 0.00 44 1009.9
20260504160210 70 294 4.0 0.0 0.00 0.00 0.00 42 1009.9
20260504150210 73 45 4.0 0.0 0.00 0.00 0.00 38 1009.8
20260504140209 73 57 7.0 0.0 0.00 0.00 0.00 38 1010.2
20260504130215 72 161 13.0 0.0 0.00 0.00 0.00 41 1010.8
20260504120210 69 17 8.0 0.0 0.00 0.00 0.00 44 1011.1
20260504110210 69 5 7.0 0.0 0.00 0.00 0.00 43 1011.5
20260504100212 69 9 10.0 0.0 0.00 0.00 0.00 40 1012.0
20260504080210 65 112 3.0 0.0 0.00 0.00 0.00 47 1013.0
20260504070211 59 265 0.0 0.0 0.00 0.00 0.00 62 1013.0
20260504060212 52 265 0.0 0.0 0.00 0.00 0.00 78 1013.2
20260504050210 47 228 0.0 0.0 0.00 0.00 0.00 83 1013.5
20260504043211 46 228 0.0 0.0 0.00 0.00 0.00 82 1013.3
20260504040211 49 228 0.0 0.0 0.00 0.00 0.00 76 1013.3
20260504033211 49 228 3.0 0.0 0.00 0.00 0.00 77 1013.7
20260504030212 49 228 0.0 0.0 0.00 0.00 0.00 77 1013.5
20260504023211 49 228 3.0 0.0 0.00 0.00 0.00 78 1013.6
20260504020212 50 140 0.0 0.0 0.00 0.00 0.00 75 1013.4
20260504013211 52 112 6.0 0.0 0.00 0.00 0.00 70 1013.4